This demonstration page uses our WeatherBlox Daily Observations layout. Learn more.

Left ArrowRight Arrow

39.92423, -83.80882

Hourly Observations for September 22, 2021

Temp ( °F °C ) Dew Point ( °F °C ) Humidity (%) Winds ( mph kmh ) Pressure ( in mb ) Visibility ( mi km ) Precip ( " mm )
12:56 am 00:56 Cloudy 68 20 N/A N/A SSE 7 11 29.96 1014 10 16 N/A
1:35 am 01:35 Cloudy 68 20 N/A N/A SSE 7 11 29.92 1013 10 16 N/A
1:56 am 01:56 Cloudy 68 20 N/A N/A SSE 7 11 29.92 1013 10 16 N/A
2:56 am 02:56 Cloudy 68 20 N/A N/A SSE 7 11 29.89 1012 10 16 N/A
3:56 am 03:56 Cloudy with Light Rain 64 18 N/A N/A NW 15 24 29.87 1012 8 13 0.00 0.00
4:10 am 04:10 Cloudy with Light Rain 61 16 N/A N/A NNW 17 28 29.87 1011 6 10 0.03 0.76
4:17 am 04:17 Cloudy with Light Rain 61 16 N/A N/A NNW 16 26 29.87 1011 6 10 0.04 1.02
4:56 am 04:56 Cloudy with Light Rain 61 16 N/A N/A N 14 22 29.86 1011 10 16 0.12 3.05
5:56 am 05:56 Cloudy 59 15 N/A N/A NNW 10 17 29.85 1011 10 16 0.00 0.00
6:56 am 06:56 Cloudy with Light Rain 59 15 N/A N/A NNW 15 24 29.86 1011 6 10 0.01 0.25
7:56 am 07:56 Cloudy with Light Rain 57 14 N/A N/A N 16 26 29.88 1012 9 14 0.11 2.79
8:56 am 08:56 Cloudy with Light Rain 55 13 N/A N/A NW 16 26 29.89 1012 7 11 0.11 2.79
9:26 am 09:26 Cloudy with Rain 55 13 N/A N/A N 18 30 29.87 1011 10 16 0.06 1.52
9:56 am 09:56 Cloudy with Light Rain 55 13 N/A N/A N 18 30 29.84 1010 10 16 0.10 2.54
10:56 am 10:56 Cloudy with Rain 55 13 N/A N/A WNW 16 26 29.88 1012 7 11 0.04 1.02
11:20 am 11:20 Cloudy with Light Rain 55 13 N/A N/A NW 15 24 29.87 1011 3 4 0.04 1.02
11:25 am 11:25 Cloudy with Light Rain 55 13 N/A N/A NNW 15 24 29.87 1011 3 5 0.04 1.02
11:37 am 11:37 Cloudy with Light Rain 55 13 N/A N/A N 15 24 29.86 1011 4 6 0.06 1.52
11:56 am 11:56 Cloudy with Light Rain 55 13 N/A N/A NNW 12 19 29.87 1011 9 14 0.07 1.78
12:56 pm 12:56 Cloudy with Rain 55 13 N/A N/A NNW 12 19 29.87 1012 10 16 0.09 2.29
1:56 pm 13:56 Cloudy with Heavy Rain 57 14 N/A N/A W 14 22 29.89 1012 7 11 0.10 2.54
2:30 pm 14:30 Cloudy with Light Rain 57 14 N/A N/A NNW 17 28 29.84 1010 10 16 0.07 1.78
2:43 pm 14:43 Cloudy with Light Rain 57 14 N/A N/A undefined N/A 29.85 1011 10 16 0.07 1.78
2:56 pm 14:56 Cloudy with Light Rain 57 14 N/A N/A NNW 10 17 29.82 1010 10 16 0.07 1.78
3:56 pm 15:56 Cloudy 59 15 59 15 100 100 NNW 14 22 29.79 1009 10 16 0.01 0.25
4:48 pm 16:48 Cloudy 57 14 57 14 100 100 WNW 12 19 29.83 1010 10 16 N/A
4:56 pm 16:56 Cloudy 57 13.9 57 13.9 100 100 WNW 15 24 29.84 1011 10 16 N/A
5:41 pm 17:41 Cloudy with Rain 55 13 N/A N/A WNW 9 15 29.84 1010 3 4 0.06 1.52
5:56 pm 17:56 Cloudy with Light Rain 55 13 N/A N/A W 9 15 29.85 1011 3 5 0.08 2.03
6:10 pm 18:10 Cloudy with Light Rain 55 13 N/A N/A W 9 15 29.85 1011 4 6 0.01 0.25
6:56 pm 18:56 Cloudy with Rain 54 12 N/A N/A WNW 17 28 29.85 1011 3 5 0.14 3.56
7:03 pm 19:03 Cloudy with Light Rain 54 12 N/A N/A WNW 17 28 29.86 1011 2 3 0.02 0.51
7:42 pm 19:42 Cloudy with Light Rain 54 12 N/A N/A NW 16 26 29.86 1011 3 5 0.12 3.05
7:56 pm 19:56 Cloudy with Light Rain 52 11 N/A N/A WNW 13 20 29.87 1012 5 8 0.14 3.56
8:46 pm 20:46 Cloudy with Light Rain 52 11 N/A N/A NW 15 24 29.87 1011 7 11 0.09 2.29
8:56 pm 20:56 Cloudy with Light Rain 52 11 N/A N/A NW 14 22 29.87 1012 7 11 0.10 2.54
9:56 pm 21:56 Cloudy with Light Rain 52 11.1 52 11.1 100 100 NW 17 28 29.86 1011 10 16 0.01 0.25
10:56 pm 22:56 Cloudy with Light Rain 52 11.1 52 11.1 100 100 NW 13 20 29.86 1011 9 14 0.00 0.00
11:56 pm 23:56 Cloudy with Light Rain 52 11 N/A N/A NW 12 19 29.86 1011 8 13 0.01 0.25

Powered by AerisWeather